Weather History for KCDH - April, 2014

Change the Weather History Date:

Saturday, April 5, 2014

  Actual Average Record
Temperature  
Mean Temperature 52 °F -  
Max Temperature 55 °F 72 °F 89 °F (1958)
Min Temperature 48 °F 45 °F 27 °F (1987)
Degree Days  
Heating Degree Days 14    
Growing Degree Days 2 (Base 50)    
Moisture  
Dew Point 37 °F    
Average Humidity 55    
Maximum Humidity 71    
Minimum Humidity 44    
Precipitation  
Precipitation 0.00 in - - ()
Sea Level Pressure  
Sea Level Pressure 30.09 in    
Wind  
Wind Speed - (North)    
Max Wind Speed -    
Max Gust Speed -    
Visibility 10 miles    
Events Rain    
Averages and records for this station are not official NWS values.
T = Trace of Precipitation, MM = Missing Value Source: NWS Daily Summary

Daily Weather History Graph

Daily Weather History Graph

Search for Another Location

Airport or City:

Trip Planner

Search our weather history database for the weather conditions in past years. The results will help you decide how hot, cold, wet, or windy it might be!

Date:

Astronomy

Apr. 05, 2014 Rise Set
Actual Time 6:53 AM CDT 7:34 PM CDT
Civil Twilight 6:28 AM CDT 7:59 PM CDT
Nautical Twilight 5:58 AM CDT 8:29 PM CDT
Astronomical Twilight 5:28 AM CDT 8:59 PM CDT
Moon 11:11 AM CDT 12:35 AM CDT
Length of Visible Light 13h 31m
Length of Day
12h 41m
Waxing Crescent, 34% of the Moon is Illuminated
Apr 5
Waxing Crescent
Apr 7
First Quarter
Apr 15
Full
Apr 22
Last Quarter
Apr 29
New

Hourly Weather History & Observations

Time (CDT) Temp. Dew Point Humidity Pressure Visibility Wind Dir Wind Speed Gust Speed Precip Events Conditions
1:15 PM - - N/A% 30.16 in - North - - N/A   Unknown
1:35 PM 53.6 °F 35.6 °F 51% 30.17 in 10.0 mi North - - N/A   Clear
1:55 PM 55.4 °F 33.8 °F 44% 30.17 in 10.0 mi North - - N/A   Partly Cloudy
2:15 PM 55.4 °F 33.8 °F 44% 30.16 in 10.0 mi North - - N/A   Clear
2:35 PM 55.4 °F 33.8 °F 44% 30.15 in 10.0 mi North - - N/A   Clear
2:55 PM 55.4 °F 35.6 °F 47% 30.13 in 10.0 mi North - - N/A   Clear
3:15 PM 55.4 °F 35.6 °F 47% 30.12 in 10.0 mi North - - N/A   Clear
3:35 PM 55.4 °F 35.6 °F 47% 30.10 in 10.0 mi North - - N/A   Clear
3:55 PM 55.4 °F 35.6 °F 47% 30.09 in 10.0 mi North - - N/A   Clear
4:15 PM 55.4 °F 35.6 °F 47% 30.08 in 10.0 mi North - - N/A   Clear
4:35 PM 55.4 °F 35.6 °F 47% 30.07 in 10.0 mi North - - N/A   Clear
4:55 PM 55.4 °F 33.8 °F 44% 30.05 in 10.0 mi North - - N/A   Clear
5:15 PM 55.4 °F 35.6 °F 47% 30.06 in 10.0 mi North - - N/A   Clear
5:35 PM 55.4 °F 35.6 °F 47% 30.08 in 10.0 mi North - - N/A   Clear
5:55 PM 55.4 °F 35.6 °F 47% 30.09 in 10.0 mi North - - N/A   Clear
6:15 PM 55.4 °F 35.6 °F 47% 30.09 in 10.0 mi North - - N/A   Clear
6:35 PM 53.6 °F 35.6 °F 51% 30.09 in 10.0 mi North - - N/A   Clear
6:55 PM 53.6 °F 37.4 °F 54% 30.07 in 10.0 mi North - - N/A   Clear
7:15 PM 53.6 °F 37.4 °F 54% 30.06 in 10.0 mi North - - N/A   Partly Cloudy
7:35 PM 53.6 °F 37.4 °F 54% 30.05 in 10.0 mi North - - N/A   Clear
7:55 PM 50.0 °F 37.4 °F 62% 30.07 in 10.0 mi North - - N/A Rain Light Rain
8:15 PM 50.0 °F 37.4 °F 62% 30.07 in 10.0 mi North - - N/A   Clear
8:35 PM 50.0 °F 37.4 °F 62% 30.06 in 10.0 mi North - - N/A   Clear
8:55 PM 50.0 °F 37.4 °F 62% 30.07 in 10.0 mi North - - N/A   Clear
9:15 PM 50.0 °F 37.4 °F 62% 30.07 in 10.0 mi North - - N/A   Scattered Clouds
9:35 PM 50.0 °F 39.2 °F 66% 30.08 in 10.0 mi North - - N/A   Mostly Cloudy
9:55 PM 50.0 °F 39.2 °F 66% 30.07 in 10.0 mi North - - N/A   Scattered Clouds
10:15 PM 50.0 °F 39.2 °F 66% 30.08 in 10.0 mi North - - N/A Rain Light Rain
10:35 PM 48.2 °F 39.2 °F 71% 30.07 in 10.0 mi North - - N/A   Scattered Clouds
10:55 PM 50.0 °F 39.2 °F 66% 30.06 in 10.0 mi North - - N/A   Scattered Clouds
11:15 PM 50.0 °F 39.2 °F 66% 30.05 in 10.0 mi North - - N/A Rain Light Rain
11:35 PM 48.2 °F 39.2 °F 71% 30.03 in 10.0 mi North - - N/A   Scattered Clouds
11:55 PM 48.2 °F 39.2 °F 71% 30.03 in 10.0 mi North - - N/A   Partly Cloudy